RH
18 17 17 17 17 31 69 86 100 94 94 82 69 85 100 100 100 100 100 100 100 100 100 100 87 86 88 84 82 82 78 98 100 100 100 99 100 100 100 96 90 78 84
19 17 18 17 17 16 26 63 81 91 84 81 90 81 98 100 100 100 100 100 88 86 100 100 100 100 100 100 100 100 100 100 100 100 100 100 100 100 97 87 91 86 85
18 17 20 18 17 16 16 43 66 81 86 71 85 98 96 100 100 100 100 100 100 99 97 100 100 100 100 100 100 100 100 100 100 100 100 100 100 100 88 95 100 94 93
17 16 22 20 19 18 16 20 45 57 62 84 92 96 100 100 100 100 100 100 100 100 100 100 100 98 100 100 100 91 89 91 100 100 100 100 100 100 100 100 100 100 97
15 15 20 21 20 21 20 18 18 20 28 76 89 100 100 100 100 100 100 100 100 100 100 100 100 95 97 100 100 94 100 99 89 73 87 100 100 100 100 100 100 100 100
15 15 18 21 19 22 21 19 19 18 18 24 77 100 100 100 100 100 100 100 100 100 99 100 100 100 100 88 88 100 99 100 100 100 100 100 100 100 100 100 100 100 100
16 16 18 21 19 21 22 20 19 19 19 16 19 54 99 95 95 100 100 100 100 100 100 100 100 100 97 84 89 100 100 100 100 100 100 100 100 100 100 100 100 100 100
16 18 18 18 18 18 22 22 22 21 20 18 15 17 42 100 97 100 100 100 100 100 100 100 100 98 98 97 89 88 100 100 100 100 100 100 100 100 100 100 100 100 100
17 19 20 19 19 18 19 22 23 24 22 21 19 17 19 52 80 100 100 100 100 100 100 100 100 100 100 100 88 100 100 100 100 100 100 100 100 100 100 100 100 100 99
19 18 20 20 21 19 20 21 24 24 24 23 21 19 19 20 38 89 100 100 100 100 98 100 100 100 100 100 100 100 100 100 100 100 100 100 100 100 100 100 100 100 100
21 20 20 20 22 23 20 19 21 24 24 24 24 23 22 21 21 33 77 100 100 100 100 96 99 97 100 100 100 100 100 100 100 100 100 100 100 100 100 100 100 100 100
15 17 20 21 22 23 24 23 20 23 24 23 22 21 20 21 21 20 20 55 100 100 100 100 99 100 100 100 100 94 100 100 100 100 100 100 100 100 100 100 100 100 100
15 15 16 18 20 23 25 25 24 23 24 25 23 22 22 22 21 22 22 21 28 53 75 85 93 95 100 100 100 100 100 100 100 100 100 100 97 100 100 100 88 95 86
21 19 17 17 19 20 20 22 25 25 22 21 22 22 22 23 22 23 22 22 21 22 24 24 24 24 25 29 34 33 29 30 32 32 38 45 62 70 68 60 58 51 64
24 21 19 17 16 15 17 17 18 21 24 22 20 20 21 21 22 21 22 22 22 22 23 24 25 25 25 25 26 26 26 27 31 35 57 52 51 62 62 45 47 45 36
27 24 22 19 18 16 15 15 15 14 15 18 21 21 20 20 20 21 22 23 23 22 23 22 23 24 23 23 25 26 25 26 31 37 33 37 44 43 42 38 35 39 37
32 28 24 22 19 18 17 16 14 14 14 14 15 15 16 17 19 20 20 21 21 23 23 23 24 24 24 24 26 27 28 32 32 33 39 39 36 30 32 32 32 34 36
33 32 29 24 22 19 17 17 16 16 16 15 15 15 15 15 15 17 18 18 19 20 20 21 22 24 25 24 25 25 24 25 28 33 32 33 30 32 34 29 30 30 31
36 30 28 24 22 21 20 20 17 16 16 16 16 16 16 16 16 17 17 17 18 18 19 20 20 21 22 22 22 22 24 30 34 38 38 30 28 24 24 27 26 37 50
38 36 32 27 27 26 24 22 20 18 16 16 14 14 15 15 16 16 15 16 16 15 16 17 19 20 20 21 21 22 25 28 30 31 26 24 25 28 26 30 40 56 70
40 34 32 33 34 34 35 31 29 26 26 24 21 20 17 18 18 18 18 19 19 19 19 20 21 21 21 20 21 21 23 24 24 25 27 26 28 31 43 49 61 72 84
48 43 37 38 43 44 41 39 38 34 32 28 24 21 20 22 22 21 21 22 21 22 23 24 23 23 24 24 23 23 24 26 26 28 28 33 34 37 61 56 76 94 91
55 50 48 43 43 42 41 39 39 34 31 28 26 26 23 21 20 22 22 22 24 25 25 27 28 28 28 27 28 30 28 28 29 32 38 40 45 63 66 85 87 99 100
42 43 46 47 47 49 49 49 44 40 42 43 40 36 34 31 28 26 24 23 23 24 26 27 26 27 29 30 29 28 31 32 37 42 45 54 78 82 84 93 100 100 95
60 57 50 45 44 44 45 44 48 52 51 56 58 52 55 49 46 37 32 29 28 30 30 28 28 28 28 29 30 31 32 36 40 49 57 77 91 95 100 100 100 100 100
52 49 48 49 48 48 49 52 55 59 69 74 78 70 71 61 59 61 52 44 42 38 38 37 34 35 37 38 40 43 48 55 61 78 88 95 99 99 100 100 100 100 93
Wind_Speed
98 98 97 97 96 95 96 95 92 87 81 74 73 72 63 57 62 62 62 56 47 50 54 60 63 63 65 66 66 66 67 69 70 71 68 68 65 67 70 72 74 76 78
98 99 95 96 97 96 95 97 94 91 88 82 77 73 70 67 63 63 60 59 64 54 44 45 50 55 57 60 65 72 73 72 71 69 66 65 66 70 71 74 77 79 81
95 97 93 95 95 96 95 96 96 90 89 86 82 72 70 70 68 68 65 61 59 59 57 55 59 61 62 61 61 64 66 66 64 63 64 67 69 72 74 78 81 84 87
94 94 92 99 94 95 96 94 94 91 69 81 85 84 79 76 74 71 69 61 65 62 64 60 55 60 63 65 68 69 67 67 64 66 69 72 72 74 76 78 84 89 93
92 92 92 98 98 95 95 98 96 94 90 77 81 90 85 82 76 74 76 72 71 71 64 59 62 61 61 62 67 69 66 69 71 72 74 78 76 76 79 82 88 91 96
91 90 89 94 95 96 97 96 97 96 96 94 85 89 93 90 87 76 72 74 76 76 75 74 68 69 73 73 71 72 74 74 76 77 77 80 79 77 84 88 91 93 98
90 87 85 89 92 95 98 96 95 97 98 99 94 92 92 94 97 86 77 72 76 78 80 78 78 81 81 75 73 70 71 73 75 74 79 81 83 89 94 96 96 97 99
89 86 86 87 89 91 95 98 96 96 98 100 97 94 96 100 99 98 98 93 91 82 83 84 87 87 85 81 80 74 77 76 79 81 87 95 96 99 98 99 99 103 105
87 86 85 86 85 88 91 95 97 97 97 99 99 98 96 102 103 103 102 102 104 103 98 95 88 86 87 86 86 84 81 86 90 94 99 102 101 104 105 105 106 108 110
88 86 84 85 87 88 88 91 95 96 96 98 100 99 100 98 102 106 106 104 106 104 103 102 102 103 99 94 95 95 97 102 106 106 106 107 108 109 107 110 112 113 112
86 86 85 85 85 86 87 89 90 96 97 97 100 101 102 102 101 105 109 110 109 108 108 109 107 108 106 106 109 110 109 111 111 111 111 112 112 113 113 113 113 115 114
79 81 83 85 86 86 86 87 88 92 96 99 100 104 103 103 106 105 104 108 113 113 111 112 110 111 113 111 114 114 113 112 114 114 115 116 117 115 115 116 119 119 120
73 74 77 80 84 87 88 89 90 91 94 98 100 100 101 104 105 105 104 104 105 107 109 111 113 115 117 118 118 119 119 119 121 120 120 119 119 118 119 117 118 117 116
70 72 74 76 78 81 86 90 92 93 95 97 99 100 101 103 103 105 106 108 107 105 106 107 108 109 109 109 111 111 110 110 111 111 112 111 112 113 112 112 113 112 112
69 70 71 74 76 78 80 83 88 94 96 97 97 98 99 101 102 104 105 106 107 107 107 107 107 110 109 109 109 109 110 109 110 108 111 111 112 111 113 111 108 108 104
67 69 69 71 73 74 75 77 79 84 88 91 95 99 100 100 101 102 105 107 108 108 109 108 107 108 107 106 106 107 107 106 108 108 110 110 109 108 107 106 103 101 97
64 65 67 70 72 72 74 75 76 76 78 80 84 88 92 96 100 103 105 106 106 107 106 105 104 105 105 106 105 103 104 103 106 105 105 103 103 102 99 97 95 89 86
65 64 67 70 71 72 71 73 74 74 74 75 76 78 82 84 87 90 93 93 95 97 97 96 96 98 98 99 100 100 96 95 93 91 92 93 92 89 87 85 80 77 73
64 65 68 70 70 70 69 70 71 71 71 71 73 73 75 76 78 80 83 84 85 86 86 86 87 88 91 92 91 91 91 88 87 83 84 81 80 78 77 73 69 67 68
63 64 67 65 65 66 66 67 67 68 68 69 69 68 69 70 71 73 75 76 77 78 79 79 80 81 83 83 82 83 83 84 81 76 75 74 70 68 67 66 64 61 63
60 61 60 58 58 56 57 60 62 63 64 64 63 63 62 63 63 66 68 68 69 71 72 73 74 75 77 75 76 75 76 76 73 69 70 68 65 64 63 62 62 63 63
51 50 50 47 48 50 52 54 56 57 58 59 59 59 59 60 60 60 61 63 65 66 67 68 69 70 70 71 72 71 70 70 68 67 65 61 63 61 60 61 60 64 57
45 46 45 46 45 45 46 48 49 50 51 52 53 53 55 56 58 60 60 61 61 63 64 63 63 64 64 63 63 63 63 62 61 58 59 61 58 58 60 60 55 53 56
42 41 41 42 42 42 42 42 42 44 43 43 44 46 46 47 49 53 54 54 55 55 55 55 54 54 55 55 56 56 55 56 56 56 56 56 56 59 52 51 52 56 62
36 38 39 40 41 41 42 43 42 41 42 40 41 41 42 42 42 44 45 47 47 49 49 49 49 49 49 50 51 52 52 52 54 54 56 56 51 48 51 54 57 57 58
38 39 39 39 40 40 41 41 42 42 39 39 39 40 40 40 40 40 41 42 44 44 45 46 47 46 46 46 47 48 47 48 47 47 46 47 49 52 52 52 54 56 59
Wind_Direction
225 226 228 229 231 232 234 235 235 236 236 237 237 239 242 247 252 252 249 246 256 269 271 267 264 265 266 267 269 271 273 275 277 284 287 291 292 294 295 298 298 300 302
226 227 228 230 230 232 232 234 235 236 237 237 237 239 242 245 246 250 254 256 249 247 252 264 267 272 276 277 274 271 272 276 280 282 286 287 288 291 295 296 297 299 301
227 228 229 231 231 232 233 233 234 235 238 239 236 237 238 241 246 250 252 252 255 255 253 253 255 257 260 265 268 272 274 276 278 281 283 284 289 293 295 296 297 299 301
227 228 227 232 231 232 233 234 236 235 234 239 235 236 238 240 241 245 249 250 251 253 256 254 259 259 262 264 267 270 272 276 274 279 281 285 288 289 293 294 297 299 303
227 228 227 231 231 231 233 233 234 234 232 231 233 234 238 239 242 244 245 247 249 250 251 255 261 262 263 263 264 268 270 271 276 280 282 284 286 289 289 292 296 299 301
229 229 228 230 232 232 233 233 235 235 235 234 233 233 234 238 239 242 243 247 248 247 244 253 257 260 262 266 268 267 273 277 277 278 282 282 284 284 290 293 296 298 300
230 230 229 230 231 232 234 235 235 236 236 236 234 234 235 236 237 238 240 244 245 245 243 249 249 256 259 261 263 268 270 274 277 279 281 280 283 286 291 293 296 299 299
231 230 229 229 230 232 233 236 236 236 238 239 238 238 237 238 238 240 240 244 247 246 250 252 254 254 256 260 259 264 267 273 275 277 279 283 286 287 290 293 295 297 297
232 231 229 231 231 233 234 235 236 238 238 240 240 239 239 238 240 240 241 244 248 248 250 251 251 255 261 263 265 266 266 270 274 278 281 284 285 287 289 292 293 294 296
232 232 232 232 233 233 234 235 236 238 239 240 241 241 242 242 241 241 242 245 247 250 250 253 254 257 260 259 262 264 268 271 274 278 280 282 285 286 289 290 292 293 295
234 235 234 234 234 235 236 236 235 237 239 239 240 241 242 242 243 243 243 244 246 249 253 254 256 257 259 259 262 265 269 271 274 276 279 281 283 285 287 289 290 293 294
235 237 239 236 237 236 236 238 238 237 239 240 240 241 243 244 244 245 246 246 247 250 251 254 257 259 261 263 263 267 270 272 273 276 278 280 282 284 286 287 287 291 293
239 239 239 240 238 237 237 237 239 238 238 240 242 243 244 245 246 247 249 249 249 251 253 255 257 258 260 261 263 266 269 271 272 275 276 278 280 282 283 286 287 290 291
239 239 240 240 241 241 239 237 238 240 241 242 243 244 245 246 247 249 249 251 252 253 254 255 257 259 261 263 264 265 268 270 272 275 276 278 279 280 283 284 286 289 291
241 242 242 243 243 243 243 242 241 241 242 244 246 247 247 249 249 250 251 253 254 254 256 257 259 261 262 264 266 267 268 270 271 274 274 276 278 280 281 285 286 286 289
240 242 245 245 246 247 247 246 246 246 245 245 246 247 249 250 249 250 251 252 254 255 256 257 259 261 262 264 265 266 268 270 272 273 273 275 277 279 280 282 284 286 289
240 242 244 246 247 248 249 250 251 250 250 250 249 249 249 250 251 252 252 254 254 255 256 258 259 260 261 262 264 265 267 268 269 271 272 274 274 277 280 282 285 286 289
241 241 244 246 247 249 251 252 253 254 254 254 254 254 254 254 254 255 255 256 256 257 257 258 258 259 259 260 259 261 262 265 267 269 271 273 276 280 282 283 284 287 288
242 242 243 246 249 251 252 254 255 256 256 256 256 255 255 255 255 256 256 257 257 257 257 258 257 258 258 259 259 259 261 264 267 270 273 276 277 280 281 282 284 284 285
243 245 246 248 250 252 253 255 256 258 259 258 258 256 254 254 254 255 256 256 257 257 257 257 257 257 259 260 261 260 261 263 266 270 272 274 278 278 279 281 283 283 284
247 250 253 253 253 253 253 254 255 256 257 258 258 258 257 255 254 254 253 254 256 256 256 256 256 257 258 260 261 261 262 263 267 268 271 273 275 276 277 279 280 281 284
252 255 257 256 255 254 253 252 253 254 255 256 257 257 255 254 253 252 251 251 252 253 254 255 256 257 258 259 261 262 263 265 267 268 269 271 273 275 274 278 281 283 282
257 256 257 255 253 251 252 253 254 254 255 257 259 260 259 258 257 255 254 253 253 254 254 255 256 257 259 260 261 262 264 265 267 267 266 268 271 272 276 278 277 278 281
254 251 249 248 247 247 248 250 251 251 253 255 259 257 259 260 260 260 260 260 259 260 261 261 260 260 260 261 262 263 263 262 261 263 264 266 267 273 273 273 277 279 284
242 243 243 244 246 247 248 249 249 251 250 252 256 256 257 258 258 259 257 259 260 260 261 261 260 259 259 258 257 257 258 259 260 261 262 264 267 270 273 276 279 283 285
244 246 247 247 247 247 248 249 249 247 248 247 250 251 252 254 254 255 256 255 255 255 256 258 259 257 257 257 256 257 257 258 258 258 258 262 267 272 275 277 281 284 285